Rome, NY

7:22 AM EST on November 13, 2019 (GMT -0500)
Griffiss

Weather History for KRME - September, 2019

Change the Weather History Date:

Sunday, September 1, 2019

  Actual Average Record
Temperature  
Mean Temperature 62 °F -  
Max Temperature 72 °F 74 °F 90 °F (2010)
Min Temperature 52 °F 53 °F 37 °F (2017)
Degree Days  
Heating Degree Days 4    
Growing Degree Days 12 (Base 50)    
Moisture  
Dew Point 55 °F    
Average Humidity 81    
Maximum Humidity 93    
Minimum Humidity 57    
Precipitation  
Precipitation 0.11 in - - ()
Sea Level Pressure  
Sea Level Pressure 30.28 in    
Wind  
Wind Speed 5 mph (ESE)    
Max Wind Speed 12 mph    
Max Gust Speed -    
Visibility 10 miles    
Events Rain    
Averages and records for this station are not official NWS values.
T = Trace of Precipitation, MM = Missing Value Source: NWS Daily Summary

Daily Weather History Graph

Daily Weather History Graph

Search for Another Location

Airport or City:

Astronomy

Sep. 01, 2019 Rise Set
Actual Time 6:25 AM EDT 7:37 PM EDT
Civil Twilight 5:56 AM EDT 8:06 PM EDT
Nautical Twilight 5:20 AM EDT 8:41 PM EDT
Astronomical Twilight 4:43 AM EDT 9:18 PM EDT
Moon 8:55 AM EDT (9/1) 9:18 PM EDT (9/1)
Length of Visible Light 14h 10m
Length of Day
13h 11m
Waxing Crescent, 8% of the Moon is Illuminated
Sep 1
Waxing Crescent
Sep 5
First Quarter
Sep 14
Full
Sep 21
Last Quarter
Sep 28
New

Hourly Weather History & Observations

Time (EDT) Temp. Dew Point Humidity Pressure Visibility Wind Dir Wind Speed Gust Speed Precip Events Conditions
12:53 AM 54.0 °F 51.1 °F 90% 30.34 in 10.0 mi East 3.5 mph - N/A   Clear
1:53 AM 52.0 °F 50.0 °F 93% 30.34 in 10.0 mi Calm Calm - N/A   Clear
2:53 AM 52.0 °F 50.0 °F 93% 30.35 in 10.0 mi East 4.6 mph - N/A   Clear
3:53 AM 52.0 °F 50.0 °F 93% 30.33 in 10.0 mi ESE 5.8 mph - N/A   Clear
4:53 AM 52.0 °F 50.0 °F 93% 30.34 in 10.0 mi ESE 4.6 mph - N/A   Clear
5:53 AM 53.1 °F 50.0 °F 89% 30.34 in 10.0 mi ESE 5.8 mph - N/A   Clear
6:53 AM 53.1 °F 51.1 °F 93% 30.36 in 10.0 mi ENE 3.5 mph - N/A   Clear
7:53 AM 55.9 °F 52.0 °F 87% 30.37 in 10.0 mi Calm Calm - N/A   Clear
8:53 AM 57.9 °F 53.1 °F 84% 30.35 in 10.0 mi ESE 6.9 mph - N/A   Clear
9:53 AM 60.1 °F 53.1 °F 78% 30.36 in 10.0 mi East 3.5 mph - N/A   Clear
10:53 AM 64.9 °F 54.0 °F 68% 30.34 in 10.0 mi ESE 11.5 mph - N/A   Clear
11:53 AM 66.0 °F 53.1 °F 63% 30.33 in 10.0 mi SE 10.4 mph - N/A   Clear
12:53 PM 68.0 °F 54.0 °F 61% 30.31 in 10.0 mi SE 5.8 mph - N/A   Mostly Cloudy
1:53 PM 71.1 °F 55.0 °F 57% 30.29 in 10.0 mi SE 6.9 mph - N/A   Mostly Cloudy
2:53 PM 70.0 °F 55.9 °F 61% 30.27 in 10.0 mi ESE 6.9 mph - N/A   Overcast
3:53 PM 71.1 °F 57.9 °F 63% 30.24 in 10.0 mi ESE 10.4 mph - N/A   Mostly Cloudy
4:53 PM 66.9 °F 59.0 °F 76% 30.23 in 10.0 mi East 8.1 mph - 0.00 in Rain Light Rain
5:53 PM 66.0 °F 60.1 °F 81% 30.22 in 8.0 mi ESE 5.8 mph - 0.01 in   Overcast
6:53 PM 64.0 °F 60.1 °F 87% 30.19 in 10.0 mi East 5.8 mph - 0.02 in   Overcast
7:53 PM 64.0 °F 59.0 °F 84% 30.18 in 10.0 mi East 5.8 mph - N/A   Overcast
8:53 PM 64.0 °F 59.0 °F 84% 30.17 in 10.0 mi East 5.8 mph - 0.01 in   Overcast
9:53 PM 63.0 °F 59.0 °F 87% 30.16 in 10.0 mi ESE 4.6 mph - N/A   Overcast
10:53 PM 63.0 °F 60.1 °F 90% 30.15 in 10.0 mi East 4.6 mph - 0.04 in Rain Light Rain
11:53 PM 63.0 °F 60.1 °F 90% 30.11 in 10.0 mi East 10.4 mph - 0.03 in   Overcast